Location: Kavakl? Dere
(36.7120°N, 29.8511°E)
Time: 12:03:02
(UTC+00:00)

Daily predictions for brighter satellites

Satellite Brightness Start Highest point End
(mag) Time Altitude Azimuth Time Altitude Azimuth Time Altitude Azimuth
SL-8 Rocket 4.2 16:55:50 10° SSE 17:01:54 55° E 17:08:02 10° NNE
USA 238 DEB 4.4 16:55:45 10° NNW 17:03:03 49° NE 17:10:53 10° SE
USA 238 4.4 16:55:56 10° NNW 17:03:13 49° NE 17:11:03 10° SE
Spot 4 Rocket 4.2 16:59:15 10° SSE 17:04:21 83° WSW 17:09:30 10° NNW
Cosmos 2278 Rocket 2.4 17:00:17 10° NNW 17:05:51 54° ENE 17:11:22 10° SE
OAO 3 Copernicus 4.4 17:02:58 10° W 17:07:58 74° S 17:12:58 10° E
Timation 2 Rocket 4.4 17:03:11 10° NNW 17:09:28 52° ENE 17:15:57 10° SE
SL-8 R/B 4.0 17:06:28 10° WSW 17:11:11 73° NW 17:15:55 10° NE
OAO 2 Rocket 3.5 17:06:31 10° WSW 17:11:40 66° S 17:16:44 10° E
Cosmos 1125 Rocket 3.6 17:06:55 10° S 17:12:00 57° ESE 17:17:09 10° NNE
Cosmos 2341 Rocket 4.0 17:08:27 10° S 17:14:37 68° E 17:20:54 10° NNE
ERS-1 Rocket 4.4 17:14:36 10° ESE 17:18:04 19° ENE 17:21:32 10° NNE
Cosmos 2366 rocket 3.9 17:13:22 10° S 17:19:28 70° E 17:25:34 10° NNE
COBE Rocket 4.3 17:15:53 10° N 17:20:58 73° WNW 17:26:04 10° SSW
In-Cosmos 22 Rocket 4.1 17:18:32 10° N 17:23:52 87° E 17:29:13 10° S
Cosmos 44 3.5 17:24:11 10° S 17:28:54 49° ESE 17:33:55 10° NE
SL-16 R/B 2.7 17:26:19 10° SSE 17:31:24 35° ESE 17:36:30 10° NE
NOSS 3 (A) 3.6 17:32:08 10° SSW 17:34:03 41° ESE 17:35:24 13° NE
Okean O Rocket 3.7 17:38:37 10° ENE 17:39:38 11° ENE 17:40:53 10° NE
Cosmos 1378 Rocket 4.1 17:37:33 10° N 17:41:37 37° E 17:44:32 17° SE
Longmarch 3A Rocket 4.4 17:37:58 10° SW 17:44:49 17° S 17:47:35 12° SSE
SPOT 5 2.6 17:41:37 10° SSE 17:46:12 83° ENE 17:50:37 10° N
CZ-4 R/B 1.4 17:43:55 16° SE 17:46:39 49° ENE 17:50:14 10° N
Cosmos 1656 Rocket 4.3 17:48:02 10° N 17:53:07 37° ENE 17:56:02 22° ESE
Cosmos 1821 Rocket 4.0 17:48:42 10° S 17:54:57 88° E 18:01:20 10° N
IRAS Rocket 4.1 17:49:59 10° SSE 17:55:28 79° ENE 18:00:57 10° NNW
Terra 2.4 17:53:32 22° ESE 17:55:53 37° ENE 18:00:11 10° N
Cosmos 1733 Rocket 3.4 17:52:01 10° SSW 17:56:20 67° W 18:00:43 10° N
CZ-4B R/B 3.6 17:55:16 15° SSE 17:58:13 88° E 18:02:05 10° NNW
Cosmos 1025 Rocket 3.8 17:54:41 10° NNE 17:58:32 32° ENE 17:59:43 27° ESE
Cosmos 2237 Rocket 4.1 17:54:19 10° SW 17:59:24 33° WNW 18:04:32 10° N
Resurs 01 Rocket 4.3 17:58:44 10° SW 18:01:44 18° W 18:04:45 10° NW
Cosmos 2242 Rocket 3.5 17:57:37 10° N 18:02:04 90° W 18:05:50 14° S
Helios 1A Rocket 2.5 17:59:46 10° N 18:02:57 69° WNW 18:06:05 10° SSW
CSL-04 Rocket 3.9 17:59:12 10° S 18:04:43 75° WSW 18:10:17 10° NNW
Meteor 2-15 Rocket 4.5 17:58:54 10° S 18:04:58 84° W 18:11:05 10° N
Cosmos 2150 Rocket 4.0 18:01:00 10° S 18:05:59 56° ESE 18:11:04 10° NNE
Meteor 2-16 Rocket 4.5 18:11:09 10° N 18:17:13 60° E 18:20:28 28° SSE
USA 59 Rocket 0.0 18:16:35 10° NNW 18:20:24 89° ENE 18:22:13 38° SSE
Gbstr 26 Del rocket 3.3 18:14:55 10° SW 18:20:32 65° SE 18:24:22 15° ENE
Cosmos 1346 Rocket 2.5 18:17:11 10° N 18:20:43 58° E 18:20:53 57° E
OAO 3 Rocket 3.2 18:16:14 10° W 18:20:49 60° S 18:22:04 43° SE
Feng Yun 1-1 Rocket 4.2 18:17:10 20° SSE 18:21:07 87° WSW 18:26:34 10° NNW
ASTEX 1 3.8 18:20:30 37° ESE 18:21:27 41° E 18:26:04 10° N
SL-4 R/B 1.6 18:18:33 10° SW 18:22:19 78° SE 18:23:54 34° ENE
Cosmos 1943 Rocket 4.2 18:18:21 10° NW 18:22:49 25° WSW 18:27:15 10° SSW
Meteor 1-31 Rocket 3.8 18:21:37 18° SSW 18:23:53 39° W 18:27:12 10° NNW
Dummy Sat-02 4.4 18:24:50 58° S 18:25:29 84° E 18:29:04 10° N
ADEOS 3.5 18:25:50 35° SSE 18:28:03 75° ENE 18:33:15 10° N
Cosmos 1869 4.2 18:32:16 31° NE 18:32:16 31° NE 18:34:24 10° NNE
MOS 1 4.3 18:27:44 24° S 18:31:14 81° WSW 18:36:55 10° NNW
CBERS 1 LM4 rocket 4.3 18:29:51 34° S 18:31:55 82° WSW 18:36:41 10° NNW
Cosmos 2369 Rocket 2.8 18:27:07 10° N 18:32:15 36° ENE 18:33:12 34° E
Cosmos 2285 Rocket 3.9 18:25:57 10° SSW 18:32:20 89° ESE 18:38:42 10° NNE
USA 234 3.6 18:28:20 10° NE 18:34:48 66° NW 18:41:16 10° WSW
SL-08 R/B 3.4 18:33:42 10° N 18:38:37 78° WNW 18:42:30 16° SSW
Cosmos 1943 3.3 18:41:49 50° SE 18:42:24 52° ESE 18:47:54 10° NNE
CZ-4B R/B 3.4 18:41:50 32° S 18:44:30 74° WSW 18:50:10 10° NNW
Cosmos 2221 Rocket 3.4 18:40:44 10° N 18:45:10 77° E 18:45:17 76° ESE
YAOGAN 11 3.9 18:41:06 10° NNE 18:45:25 86° ESE 18:45:52 71° S
SL-08 R/B 4.4 18:45:12 10° N 18:51:26 75° E 18:53:09 50° SSE
OAO 2 Rocket 3.2 18:51:02 10° W 18:56:04 70° SSW 18:56:04 70° SSW
ERS-1 Rocket 3.9 18:54:02 26° SSW 18:56:23 44° W 19:01:09 10° NNW
NOSS 2-1 (D) 4.4 18:56:04 10° NW 18:59:48 42° WSW 19:00:11 41° SW
Okean-O 2.8 19:07:13 67° NW 19:07:13 67° NW 19:11:04 10° NNW
NOSS 2-1 (E) 4.3 19:04:14 10° NW 19:07:43 46° WSW 19:07:43 46° WSW
Cosmos 1934 Rocket 4.4 19:10:21 26° SSW 19:13:58 61° W 19:20:08 10° N
CZ-4B R/B 4.3 19:15:34 38° NNE 19:15:34 38° NNE 19:18:52 10° N
Okean O Rocket 2.2 19:15:51 54° WNW 19:15:51 54° WNW 19:19:32 10° NNW
SL-16 R/B 4.1 19:10:37 10° WSW 19:15:28 29° WNW 19:20:22 10° N
Ariane Rocket 3.9 19:17:09 37° NE 19:17:09 37° NE 19:20:42 10° N
Cosmos 1782 Rocket 4.5 19:21:40 45° NW 19:21:40 45° NW 19:25:01 10° N
Spot 2 Rocket 3.9 19:23:16 53° WSW 19:23:21 53° W 19:28:16 10° NNW
Milstar 3 4.0 19:17:32 10° SW 19:41:40 - E 19:24:35 43° S
USA 245 4.4 19:28:49 55° NNW 19:28:49 55° NNW 19:33:00 10° NNW
ATLAS 5 CENTAUR R/B 4.3 19:31:23 10° NNE 19:31:56 11° NNE 19:31:56 11° NNE
Terra 3.9 19:32:10 17° WSW 19:33:29 19° W 19:36:49 10° NW
Cosmos 1140 Rocket 4.2 19:29:09 10° NNW 19:32:51 47° N 19:32:51 47° N
NOSS 3-1 (C) 4.0 19:26:50 10° NNW 19:34:25 81° ENE 19:35:43 67° SE
Cosmos 967 Rocket 4.4 19:31:58 10° NNW 19:38:09 81° WNW 19:38:09 81° WNW
BREEZE-M DEB (TANK) 3.8 19:39:53 10° NW 19:43:48 64° NE 19:43:55 64° NE
COSMOS 2455 3.7 19:53:45 10° NNW 19:58:10 41° NNE 19:58:10 41° NNE
SJ 16-02 4.1 20:03:27 10° N 20:04:02 13° N 20:04:02 13° N
Cosmos 2369 Rocket 3.9 20:11:25 10° NW 20:14:59 25° W 20:14:59 25° W
NOSS 3-1 (A) 4.2 20:26:30 10° NNW 20:33:20 75° NNW 20:33:20 75° NNW
ATLAS 2AS CENTAUR R/B 3.9 21:38:07 38° N 21:38:07 38° N 21:42:23 10° NNE
ACS3 Solar Sail 4.0 21:59:31 10° NE 22:01:13 16° NE 22:01:13 16° NE
Cosmos 1980 Rocket 4.3 22:24:38 10° NNW 22:26:39 22° N 22:26:39 22° N
ATLAS 3B R/B 3.8 22:50:56 10° NNW 22:55:41 41° NNW 22:55:41 41° NNW
Cosmos 2082 Rocket 4.0 23:02:51 27° N 23:02:51 27° N 23:05:30 10° NNE
Cosmos 2333 Rocket 4.3 22:57:27 10° N 23:01:34 20° NE 23:02:07 20° ENE
SL-16 R/B 3.6 23:23:40 10° N 23:27:50 34° NE 23:27:50 34° NE
ACS3 Solar Sail 2.9 23:40:58 10° N 23:44:47 36° NNW 23:44:47 36° NNW
IDEFIX/ARIANE 42P 3.9 23:43:26 10° NNE 23:46:20 35° N 23:46:20 35° N
ADEOS Rocket 3.7 23:43:50 10° NNE 23:51:31 65° E 23:52:01 64° ESE
